Theta_e
312 316 318 318 319 317 316 316 316 315 315 315 317 317 316 317 316 315 313 310 308 312 315 315 315 316 315 312 308 305 303 304 303 303 302 301 301 300 300 300 299 298 297 296 296 295 295 295 295 296 297 298 301 303 305 307 308 309 309 311 311 309 309 308 307 305 305 304 302 301 300 298 298 298 299 299 300 300 300 301 301 301 302 302 303 303
312 317 320 318 317 315 315 314 313 313 313 314 316 316 316 317 316 314 312 310 308 312 315 313 313 315 315 312 307 304 305 305 304 304 303 302 301 300 300 299 299 298 297 297 296 295 295 295 295 296 297 298 299 301 303 305 307 307 308 310 308 307 308 308 306 306 305 303 300 299 297 295 295 295 295 296 297 297 298 299 299 299 299 300 300 300
314 318 318 315 313 312 312 311 311 313 313 314 315 316 317 317 316 314 311 309 308 311 314 313 312 315 315 310 305 304 305 304 303 302 302 301 301 300 300 299 298 298 297 297 297 296 295 295 295 295 296 296 297 298 300 302 304 305 307 308 306 306 308 307 307 306 305 303 301 299 296 295 294 293 293 293 293 295 296 296 297 297 297 298 298 298
317 317 315 312 311 311 310 309 310 312 312 314 315 315 317 316 317 317 313 309 308 310 312 312 313 315 315 311 305 303 303 302 300 299 300 300 300 300 299 298 298 298 298 297 296 296 295 295 295 295 294 295 296 297 298 300 302 303 305 305 305 306 306 305 305 304 302 300 299 298 296 294 293 291 290 290 290 291 291 292 292 292 293 293 293 293
318 313 309 310 311 313 312 310 310 313 313 314 314 315 317 316 316 317 314 311 310 310 310 312 315 318 317 315 310 303 300 301 299 299 299 298 299 298 297 298 297 297 297 297 296 296 295 295 294 293 294 294 295 296 297 298 300 301 302 302 303 303 302 301 301 300 299 298 296 295 293 292 291 289 289 288 288 287 287 287 288 288 288 288 288 288
317 310 308 310 311 313 314 312 312 315 315 316 315 314 315 315 315 315 314 313 315 316 312 312 320 321 316 315 313 306 302 302 300 299 300 299 298 298 298 298 297 296 296 296 296 295 295 294 294 293 293 293 293 294 295 296 297 298 299 300 301 300 300 299 299 298 297 296 294 293 292 291 290 289 288 288 287 287 286 287 287 287 287 287 287 287
314 309 310 313 312 313 315 314 314 315 316 318 317 314 313 314 315 315 314 315 318 320 313 310 319 322 316 316 313 307 305 304 301 300 300 300 299 298 298 298 297 296 296 295 295 295 294 294 294 293 292 292 292 292 293 295 296 297 298 299 299 299 298 298 298 297 297 295 294 293 292 290 289 288 287 287 287 287 287 287 287 287 287 287 287 287
312 310 312 315 314 315 315 316 315 313 317 320 317 315 313 313 314 315 315 316 317 317 313 310 315 318 318 317 311 306 307 306 303 302 301 300 300 299 299 298 297 296 296 295 295 294 294 293 293 292 291 290 290 291 292 293 295 296 297 298 298 297 296 296 296 295 295 294 293 292 290 288 288 288 287 287 287 287 287 287 287 287 287 287 287 287
314 314 315 315 315 315 316 318 315 313 317 318 313 311 312 313 315 315 315 315 314 315 317 315 313 316 319 316 310 306 309 310 308 304 302 301 300 299 299 298 297 296 296 295 295 294 294 293 292 291 290 289 289 290 290 291 293 294 295 296 296 295 294 294 294 294 293 293 292 291 289 288 287 287 287 287 287 287 287 287 286 286 286 286 286 286
313 311 312 315 316 316 316 314 312 315 317 313 309 310 311 311 313 313 315 315 313 315 320 319 315 318 321 318 314 310 311 314 312 307 304 302 300 300 299 298 297 296 295 295 295 294 293 292 291 290 289 289 288 288 289 289 290 291 292 293 294 293 292 292 292 292 292 292 291 290 289 288 287 287 287 287 287 286 286 286 286 286 286 285 285 285
308 305 308 313 315 313 311 307 307 313 313 310 310 312 312 311 311 311 312 313 315 318 320 318 316 317 320 319 317 316 313 313 312 307 304 303 301 300 300 298 297 295 295 295 294 294 292 291 290 289 289 288 287 287 288 288 289 290 291 292 292 291 291 291 291 291 291 290 290 289 289 288 288 287 287 287 287 286 286 286 285 285 285 285 285 285
309 309 310 311 309 309 310 308 306 306 307 310 314 314 315 314 312 313 313 313 319 322 316 311 312 315 319 319 316 316 312 310 310 309 305 303 301 300 300 298 297 296 295 294 294 293 292 291 290 289 289 288 287 287 287 288 289 289 290 291 291 290 290 290 289 289 289 289 289 288 288 288 288 288 287 287 287 286 286 286 285 285 285 285 285 284
314 314 312 310 307 308 313 313 308 306 307 311 314 315 320 320 316 318 318 316 320 319 310 307 310 313 317 317 315 314 311 308 308 307 305 303 301 301 300 298 297 296 295 294 293 293 292 291 290 290 289 289 288 288 287 287 288 289 289 289 290 289 288 288 288 289 289 288 288 288 288 288 287 287 287 287 286 286 286 285 285 285 284 284 284 284
318 317 313 312 310 309 313 315 314 312 310 311 314 317 322 322 320 322 320 316 318 315 307 306 310 314 316 315 314 312 308 305 303 303 303 303 302 301 300 298 297 296 295 294 293 293 293 292 291 290 289 289 288 288 287 287 288 288 288 288 289 288 288 288 288 288 288 288 288 288 288 288 287 287 287 286 286 286 285 285 285 285 284 284 284 283
323 323 316 314 314 311 313 316 317 315 311 312 314 317 320 321 322 324 321 319 319 313 307 307 312 317 317 313 309 305 302 300 300 299 300 302 302 301 300 298 297 296 295 294 294 294 293 292 291 290 290 289 288 288 287 287 287 287 288 288 288 288 288 288 288 288 288 288 288 288 287 287 287 287 286 286 286 286 285 285 285 284 284 283 283 283
322 324 316 313 313 311 313 315 315 315 314 312 311 314 318 319 318 317 315 314 313 312 311 310 313 315 314 310 302 300 300 299 300 299 299 301 301 300 299 298 297 296 295 294 293 294 293 291 291 290 289 289 288 288 287 286 287 287 288 288 288 288 288 288 288 288 288 287 287 287 287 287 287 287 287 286 286 286 286 285 285 284 284 284 283 283
320 320 313 310 310 309 310 313 313 315 316 312 311 314 315 314 314 314 312 308 309 316 317 312 313 313 312 311 304 301 303 301 300 300 300 300 300 299 299 299 298 297 296 295 294 294 293 291 291 290 289 289 288 287 287 286 287 287 288 288 288 288 288 288 288 287 287 287 287 287 287 287 287 287 287 287 287 287 286 286 286 285 285 284 284 284
320 319 312 310 312 308 304 309 311 312 313 312 314 315 313 312 314 314 317 314 313 319 318 313 315 315 314 315 308 304 306 305 302 301 300 299 299 299 300 299 298 297 296 295 294 294 293 291 291 290 289 289 288 287 287 286 287 287 288 288 288 288 288 287 287 287 287 287 287 287 287 287 287 287 287 287 287 287 287 287 286 286 286 285 285 285
318 320 314 309 311 308 303 309 313 310 309 311 312 314 313 316 317 314 317 319 318 320 318 313 314 314 316 317 312 310 310 307 304 302 300 300 299 299 300 300 298 297 296 295 294 294 293 292 291 290 289 289 288 287 287 286 286 287 287 287 287 287 287 287 287 287 287 287 287 287 287 287 287 287 287 287 287 287 287 287 287 287 286 286 285 285
315 320 318 309 308 309 307 310 314 312 309 308 309 311 312 314 316 315 315 317 319 320 318 316 314 314 315 315 314 314 312 309 306 303 301 301 300 300 300 300 299 298 296 295 294 294 294 292 291 290 289 289 288 287 286 286 286 287 287 287 287 287 287 287 287 287 287 287 287 287 287 287 287 287 287 287 287 287 287 287 287 286 286 286 285 284
313 317 319 311 307 310 311 312 315 315 311 309 311 313 312 311 312 314 313 313 315 318 317 318 319 316 313 313 314 314 313 311 308 305 303 303 302 301 300 300 300 298 297 296 295 294 293 292 291 290 289 289 288 287 286 286 286 286 287 287 287 287 287 287 287 287 287 287 287 287 287 287 287 287 287 287 287 287 287 287 286 286 285 285 284 284
314 315 317 313 310 312 313 312 312 313 313 312 313 314 314 314 313 316 317 312 311 315 316 316 320 318 312 309 311 312 312 311 308 306 305 304 303 302 300 300 300 299 298 296 295 294 293 292 291 290 289 288 288 287 287 286 286 286 286 287 287 287 287 287 287 287 287 287 287 287 287 287 287 287 287 287 287 287 287 286 285 285 284 284 284 283
317 316 317 315 312 313 312 308 306 308 311 312 312 313 315 315 315 318 321 315 311 313 312 312 317 318 310 304 306 307 307 306 305 306 306 305 303 302 300 300 299 299 298 296 295 294 293 292 291 290 289 289 288 288 287 287 287 286 286 286 287 286 286 287 287 287 287 287 286 286 287 287 287 287 287 287 287 286 286 285 285 284 284 283 283 283
316 316 317 316 313 312 311 308 306 306 309 310 312 312 314 315 316 317 317 315 314 314 313 313 317 317 309 303 304 303 302 302 303 303 304 304 303 301 300 299 299 298 297 296 295 294 293 293 291 290 290 289 289 288 288 288 287 286 286 286 286 286 286 286 286 286 286 286 286 286 287 287 287 287 287 286 286 286 285 285 284 284 284 283 283 283
316 317 317 317 317 316 315 313 312 310 310 311 313 313 312 314 316 316 314 313 315 318 317 317 320 317 310 306 304 302 301 302 302 300 301 303 302 301 299 299 298 297 296 295 294 294 293 293 291 291 290 290 289 289 288 288 287 287 286 286 286 286 286 286 286 286 286 286 286 286 286 287 287 286 286 286 286 285 285 284 284 284 284 284 283 282
317 319 318 318 321 321 320 319 318 316 312 312 315 314 312 313 314 314 314 314 317 319 318 318 320 316 310 308 307 305 304 305 304 301 300 300 301 300 299 298 297 297 296 295 294 293 293 293 292 291 290 290 289 289 289 288 287 287 286 286 286 286 286 286 286 285 285 285 286 286 286 286 286 286 286 285 285 285 284 284 284 284 284 283 282 282
317 319 318 319 321 322 321 321 319 317 314 314 315 314 312 313 314 314 315 316 317 316 316 318 318 316 312 309 310 309 308 308 307 304 302 300 299 299 298 297 297 296 296 295 294 294 293 293 292 291 290 290 289 289 289 288 288 287 287 286 286 286 286 286 285 285 285 285 286 286 286 286 286 286 286 285 285 284 284 284 284 284 284 283 282 281
316 318 318 318 320 320 320 319 318 317 317 316 316 315 313 312 313 315 316 317 316 316 318 318 317 317 315 311 311 311 309 310 309 306 304 302 299 298 297 297 296 296 295 295 295 294 293 292 292 291 290 290 290 289 289 288 288 287 286 286 286 286 286 285 285 285 285 285 285 286 286 286 286 286 285 285 285 284 284 284 284 284 283 282 281 281
317 317 318 318 318 318 318 317 315 316 317 317 316 315 314 312 313 314 315 316 316 317 318 317 316 317 315 312 313 313 311 312 311 306 304 302 299 298 297 296 296 295 295 295 295 294 293 293 293 292 291 290 290 289 289 288 288 287 286 286 286 286 286 285 285 285 285 285 285 285 286 286 286 285 285 285 284 284 284 284 284 284 283 282 281 280
317 317 318 319 317 317 317 316 315 315 316 317 316 315 315 313 312 313 314 315 315 316 317 316 315 316 314 313 314 313 312 311 308 305 302 300 299 298 297 296 296 296 295 295 295 294 293 293 293 292 291 291 290 289 289 288 288 287 286 286 286 286 285 285 285 285 285 285 285 285 285 286 285 285 285 285 284 284 284 284 284 283 283 282 281 280
316 317 318 318 317 318 317 316 315 315 316 317 316 316 315 314 313 312 313 314 314 315 315 314 314 314 313 313 313 310 307 306 305 304 302 300 299 298 297 297 297 296 296 295 295 295 294 293 293 292 291 291 290 289 289 288 288 287 286 286 286 286 285 285 285 285 285 285 285 285 285 285 285 285 285 284 284 284 284 284 284 284 283 282 281 280
314 315 315 316 319 319 316 315 315 314 314 316 317 316 313 311 312 312 311 312 313 314 314 314 315 314 312 311 309 306 304 305 305 304 302 300 299 298 298 298 298 297 297 296 295 294 294 293 293 293 292 291 290 290 289 289 288 288 287 287 286 286 285 285 285 285 285 285 285 285 285 285 285 285 285 284 284 284 284 284 284 283 283 282 280 279
313 314 314 315 320 319 311 310 313 313 315 318 318 317 314 311 312 312 311 312 312 313 314 314 315 314 311 309 308 305 305 307 306 305 304 302 300 299 299 300 299 298 297 296 295 294 294 294 293 293 292 291 290 290 290 289 289 289 288 288 287 287 286 286 286 285 285 285 285 285 285 285 285 285 285 284 284 284 284 284 284 283 283 281 280 279
312 314 314 315 319 315 307 307 312 316 320 318 312 311 314 313 313 312 312 312 311 312 313 313 313 314 312 310 309 308 308 308 306 304 303 302 301 300 299 299 299 298 297 296 295 295 294 294 293 293 292 291 291 291 291 290 289 289 289 289 289 288 287 287 286 286 286 286 285 285 285 285 285 285 285 284 284 284 283 283 283 283 282 281 279 278
311 313 313 314 314 309 305 309 315 318 318 309 301 301 307 311 313 313 312 312 312 311 312 311 312 312 311 310 309 308 306 303 301 299 299 299 300 300 299 298 297 297 296 296 295 295 295 294 294 293 292 292 291 291 291 290 289 289 289 289 289 289 288 287 287 287 287 286 286 286 286 286 285 285 284 284 284 283 283 283 282 282 281 280 279 278
311 312 313 312 310 306 307 313 316 316 312 305 298 297 302 307 310 312 312 312 311 311 310 310 310 308 307 305 302 299 299 297 296 296 296 295 296 298 299 299 298 296 296 296 295 295 295 294 294 293 292 292 291 291 290 290 289 289 289 289 289 289 288 288 287 287 287 286 286 286 286 286 285 285 284 284 283 283 283 282 281 281 280 279 278 278
309 312 313 312 310 308 309 311 312 313 312 309 303 301 303 308 309 310 312 312 309 308 308 308 308 307 304 301 297 294 294 296 297 298 297 295 295 296 297 298 297 296 296 295 294 295 295 294 294 293 293 292 291 291 290 290 289 289 288 288 288 288 288 287 287 287 287 286 286 286 286 286 285 284 284 283 283 283 282 281 280 280 279 279 278 277
306 309 312 313 312 310 310 311 311 313 314 313 309 302 301 304 306 308 311 310 305 305 307 308 309 308 304 300 296 295 295 299 301 301 298 295 294 295 295 294 294 294 293 293 292 292 292 293 293 293 293 292 291 291 291 290 288 288 288 287 288 287 287 287 286 287 286 286 286 286 286 286 285 284 284 283 283 282 281 280 280 279 279 279 278 277
304 306 309 312 313 310 311 313 314 313 313 312 308 299 296 299 304 306 309 308 304 303 304 307 309 307 305 300 296 296 298 300 302 301 298 295 292 292 293 293 292 291 291 292 292 291 291 291 291 291 290 290 290 291 290 289 288 287 287 287 287 286 286 286 287 287 287 286 286 286 286 286 285 284 284 283 282 281 280 280 279 279 279 279 278 277
305 306 307 311 313 312 312 313 313 312 311 307 302 296 293 297 301 307 310 307 302 298 299 304 307 304 302 298 295 297 300 301 301 299 296 293 291 290 291 292 292 291 291 292 292 291 290 290 289 289 289 290 291 290 290 289 287 286 286 286 285 285 286 288 288 287 287 286 286 286 286 285 284 284 283 283 282 280 280 279 279 279 279 278 278 277
304 305 306 310 312 312 313 313 312 312 308 302 297 294 294 296 301 307 309 303 298 295 294 300 303 300 297 296 295 297 299 297 296 295 293 292 292 291 289 289 290 291 291 292 292 291 291 290 290 291 291 291 291 290 289 288 287 286 286 285 284 286 288 290 289 287 286 286 286 286 286 285 284 283 283 282 281 280 279 279 279 279 278 278 277 276
305 305 305 308 310 310 312 312 312 313 306 298 294 293 294 299 305 306 302 297 297 298 296 296 298 296 295 296 296 296 296 293 292 292 292 292 293 292 289 287 287 288 289 289 290 291 291 291 291 292 292 292 291 290 289 287 286 286 285 284 285 289 290 290 288 287 286 286 285 285 285 284 283 283 282 281 280 279 279 279 279 278 278 277 277 276
306 306 306 307 308 308 309 310 312 313 303 296 295 295 295 301 305 301 296 293 295 297 296 294 294 293 294 295 295 294 293 291 291 291 291 290 291 290 289 287 287 287 287 288 289 290 290 291 291 292 292 292 290 289 288 287 286 286 284 285 288 291 290 289 288 286 286 285 285 285 284 284 283 282 282 281 280 279 279 279 278 277 277 276 276 275
306 307 307 307 308 308 310 310 309 306 300 296 298 299 299 301 300 297 297 296 293 293 293 293 293 292 293 295 295 292 291 290 291 290 289 289 289 289 288 287 286 287 287 287 289 289 289 289 290 290 291 291 290 289 288 287 287 285 284 287 290 290 288 287 286 285 284 284 284 284 284 283 282 281 281 280 279 278 278 278 277 277 276 276 275 274
305 304 304 305 306 305 306 304 301 298 296 296 298 298 300 300 296 294 298 298 294 292 291 293 294 293 291 292 293 291 290 290 290 290 290 290 289 289 289 287 286 286 287 287 288 289 288 288 289 288 288 289 289 289 288 288 287 285 286 290 290 289 287 287 285 283 283 283 284 283 283 282 281 281 280 279 278 278 278 277 276 276 276 275 275 274
298 297 299 301 301 299 298 297 295 295 295 296 295 295 297 298 294 293 297 298 295 292 292 293 294 293 291 290 291 291 291 290 290 289 289 290 289 288 287 286 285 286 287 287 288 288 288 287 287 286 286 286 287 287 288 288 287 286 288 290 289 287 287 286 284 283 283 282 282 282 281 281 280 279 278 277 277 277 277 277 276 275 275 275 274 274
293 293 295 298 299 300 299 295 293 293 294 294 294 294 294 295 293 291 294 296 294 292 292 292 292 291 290 290 291 292 293 291 290 289 288 288 289 288 286 285 286 286 286 287 288 288 287 286 285 285 285 285 286 287 287 287 287 288 289 288 286 286 285 283 283 283 282 282 281 280 280 280 279 279 278 277 277 277 276 276 276 275 275 275 274 273
295 294 295 296 296 296 296 292 290 290 291 292 293 294 294 294 293 290 290 291 291 291 290 289 289 290 290 290 290 292 292 290 290 290 289 287 287 287 286 285 285 286 287 288 288 287 286 285 285 286 285 286 288 288 287 286 287 288 287 285 285 284 283 282 282 282 282 282 281 280 279 279 278 278 278 277 277 277 277 276 276 276 276 275 274 273
295 295 295 295 294 293 292 290 289 291 292 291 292 293 293 293 293 292 289 289 290 291 290 289 288 288 290 290 289 290 292 291 289 290 290 288 287 286 285 285 285 286 287 288 288 287 287 286 286 286 286 287 288 288 286 287 287 287 286 285 283 282 282 281 281 280 280 280 279 279 278 278 277 277 277 277 277 277 277 277 276 276 275 274 273 272
294 295 294 293 295 294 293 292 291 293 295 294 293 294 293 291 291 292 291 291 292 292 292 291 290 287 286 287 287 289 293 293 290 289 289 288 287 286 285 285 285 286 288 288 288 287 286 286 286 286 286 287 288 286 286 287 287 287 286 284 283 281 281 280 279 278 278 277 277 277 277 277 276 276 276 276 276 276 276 275 275 274 274 273 272 272
294 296 294 294 296 296 294 293 292 293 296 295 294 294 293 290 290 292 293 293 293 291 290 291 292 290 288 287 285 287 292 292 289 288 289 288 286 286 286 286 286 287 288 288 287 285 285 285 285 284 285 287 287 285 286 286 286 286 285 284 282 281 280 279 278 277 276 276 276 277 276 276 275 275 275 275 275 274 274 274 273 273 272 272 272 272
Wind_Speed
1 4 6 7 7 9 12 11 5 3 4 2 2 2 5 6 6 1 2 1 1 4 7 7 10 12 9 7 7 5 4 4 5 5 5 5 4 4 4 4 3 3 3 2 2 4 5 5 5 8 11 12 14 17 19 20 21 23 24 25 26 27 28 28 27 26 27 27 27 28 29 29 29 29 29 29 28 28 27 26 25 25 25 23 23 22
2 7 10 8 3 5 8 7 3 3 3 2 3 4 5 7 7 2 2 1 1 3 6 3 6 13 11 4 7 5 5 6 5 5 5 5 5 4 4 5 4 3 3 2 3 4 4 4 6 9 12 13 14 16 19 21 21 21 22 23 23 24 25 26 25 25 25 25 26 28 29 29 29 30 30 31 30 29 28 27 27 26 26 25 25 24
4 9 9 3 6 5 3 4 6 5 4 3 3 4 5 4 4 3 2 2 2 3 4 1 5 12 9 4 7 6 6 4 3 3 3 3 4 4 4 3 4 4 3 4 4 4 4 4 6 8 11 13 14 16 18 21 22 22 22 23 23 24 24 24 24 24 25 26 27 29 30 31 32 32 32 32 31 30 29 29 29 29 28 27 27 26
5 7 5 6 8 7 4 4 7 5 4 6 4 5 6 2 2 4 1 3 3 2 3 3 5 10 8 4 7 6 5 3 2 2 2 2 2 2 2 2 3 5 5 5 4 4 4 5 6 7 9 12 14 16 18 21 22 24 25 25 25 25 25 25 25 26 27 28 29 31 32 33 34 34 33 33 32 32 31 31 31 31 30 30 29 29
5 1 1 8 9 9 6 5 8 6 5 7 7 8 8 5 6 7 1 2 3 3 2 3 7 9 8 7 5 5 5 4 3 4 3 3 2 2 2 2 3 4 4 5 5 5 5 5 6 6 7 11 14 16 18 20 22 25 26 27 28 28 28 29 29 29 31 32 32 33 32 31 32 31 31 30 30 31 31 31 32 31 31 30 30 30
5 3 5 8 7 8 7 6 9 8 5 5 9 12 12 9 8 5 2 0 4 4 3 2 6 5 2 5 5 4 5 5 4 4 6 5 5 5 4 5 4 3 3 3 4 5 5 5 5 5 6 8 11 14 16 19 21 24 26 28 29 29 30 30 30 30 31 32 31 29 27 25 26 25 25 25 25 27 29 30 30 30 29 29 29 29
2 3 5 6 7 7 7 6 8 8 6 5 4 9 12 10 6 5 5 4 4 3 1 1 6 5 1 3 3 4 4 5 5 6 7 7 6 7 6 6 6 5 4 3 4 4 5 5 5 5 5 6 9 13 16 19 21 23 25 27 28 29 29 29 29 29 29 30 30 29 29 28 27 24 23 24 25 27 28 28 28 27 27 28 28 27
4 5 3 5 6 7 7 6 7 9 7 3 1 3 8 8 8 8 7 6 3 2 0 3 4 5 6 3 3 4 4 6 8 9 9 9 9 9 8 7 7 6 5 5 5 5 5 5 5 6 5 7 10 14 17 19 21 23 24 25 26 27 27 27 28 28 29 30 30 31 33 32 30 28 27 27 27 27 27 26 26 26 25 25 25 25
4 7 8 9 7 6 6 2 7 13 7 1 2 1 4 4 5 6 6 5 2 1 4 5 4 4 7 4 3 3 4 8 10 12 12 12 11 10 10 8 7 6 5 5 6 6 6 6 5 6 6 8 13 16 19 21 23 24 24 24 26 26 27 28 28 28 28 29 30 31 33 33 31 30 28 27 27 26 25 25 25 24 24 24 24 24
1 3 4 7 7 6 3 4 3 10 5 3 5 5 6 4 4 3 4 3 2 3 8 8 9 6 6 5 5 3 4 9 8 10 12 12 12 11 10 10 8 7 6 5 6 6 6 6 5 6 7 10 15 18 20 23 25 26 27 27 28 29 29 29 28 28 28 28 29 30 31 32 31 29 27 26 25 24 23 24 24 23 23 22 22 22
2 0 1 2 3 2 5 5 3 0 2 7 7 6 7 5 4 2 1 2 2 6 7 8 12 9 6 4 8 5 3 4 4 7 10 12 12 12 11 10 9 8 7 6 6 7 6 6 6 7 8 10 15 18 20 23 26 28 29 29 30 30 29 29 28 28 28 28 28 29 29 29 29 28 26 25 24 23 22 22 22 21 21 21 20 20
1 2 2 1 1 3 6 5 4 3 2 4 4 5 4 2 2 2 2 3 5 5 2 1 5 9 8 4 5 4 2 2 3 7 13 15 14 13 11 10 10 9 8 8 7 8 8 8 8 8 8 10 13 17 20 23 26 28 29 30 30 30 29 29 29 28 28 27 28 28 28 28 27 26 25 24 23 22 21 21 20 19 19 19 19 18
2 4 2 2 0 3 6 6 4 2 2 3 4 7 6 3 3 4 3 4 6 4 2 2 2 5 8 7 7 4 3 3 2 2 9 15 15 14 13 11 10 8 8 8 7 8 9 10 10 10 10 11 12 15 20 24 27 28 29 30 31 30 29 29 28 28 28 28 28 27 26 26 25 24 24 23 22 21 20 19 18 18 18 17 17 17
3 2 3 4 2 4 9 8 5 4 5 7 8 8 7 5 4 5 4 3 4 1 2 1 3 3 5 6 9 5 2 3 3 3 1 10 15 14 13 11 9 9 8 8 7 8 9 10 11 11 11 11 11 14 19 24 26 29 29 29 31 30 29 29 28 28 28 27 26 25 25 24 23 23 23 22 21 19 18 17 17 17 17 17 17 17
6 3 6 9 4 7 13 8 3 7 8 7 4 3 5 5 4 4 4 3 2 2 2 1 3 4 3 1 2 2 3 3 2 2 1 5 10 11 11 11 10 9 9 8 7 8 10 11 11 11 11 11 12 14 19 23 26 28 29 30 31 31 29 28 28 27 27 26 25 24 23 23 22 22 22 21 20 18 17 17 16 17 16 16 16 16
6 5 3 4 1 9 12 4 3 7 6 3 1 1 4 4 2 1 1 0 2 1 2 3 3 3 2 2 2 1 1 2 2 2 2 6 9 9 10 10 10 9 9 8 8 8 11 11 11 11 11 11 12 15 19 23 26 28 30 30 30 30 29 28 27 27 26 25 24 23 22 21 21 21 21 20 19 18 17 17 16 16 16 16 16 16
4 2 2 3 1 5 5 1 2 2 3 4 3 5 3 2 1 1 0 2 1 5 3 5 5 3 1 2 3 3 2 4 3 3 5 7 10 11 10 10 10 10 9 9 9 9 12 12 12 12 12 12 14 17 20 23 26 28 30 31 30 30 29 27 26 26 25 25 24 22 21 21 20 20 20 19 18 17 17 16 16 15 15 15 14 14
4 1 1 2 2 1 2 1 3 3 1 5 5 6 3 1 1 1 3 1 2 6 3 4 8 6 5 3 2 4 4 6 6 6 6 7 10 12 11 11 11 10 9 9 10 11 12 14 13 13 13 14 15 18 21 24 26 28 30 30 30 30 29 27 26 25 25 24 23 22 21 20 20 19 18 18 17 16 15 15 14 14 14 13 13 13
4 3 1 1 1 2 1 2 3 1 1 1 2 3 2 3 4 3 4 3 4 6 4 4 6 6 8 6 4 6 8 10 10 9 9 11 12 12 12 13 12 11 10 10 10 11 13 15 15 15 16 15 16 18 21 24 26 28 29 30 29 29 28 27 26 25 24 23 23 22 21 19 18 18 17 15 14 13 13 13 12 12 12 12 12 12
3 4 3 1 1 2 2 5 8 6 2 1 1 3 1 3 3 3 3 2 3 5 3 2 3 4 8 7 10 12 11 12 13 10 10 13 14 13 13 13 14 13 12 11 10 11 13 16 16 17 17 16 18 20 22 24 26 28 29 29 29 29 28 26 25 25 24 22 22 21 20 18 17 16 14 13 12 11 11 10 10 10 10 10 11 11
2 4 3 2 1 3 6 7 8 9 8 6 6 8 5 2 0 2 2 1 2 4 3 4 5 3 4 4 9 12 9 10 13 12 11 12 13 14 13 14 14 13 12 11 10 10 13 16 16 16 16 17 19 21 22 24 25 27 28 29 29 29 28 27 25 25 24 22 21 20 19 17 15 14 12 10 9 9 8 8 7 8 8 8 9 10
4 3 3 4 4 6 4 1 2 3 5 6 8 10 11 7 5 4 5 3 1 3 3 2 5 3 3 1 3 3 2 5 10 11 10 11 13 13 12 14 14 13 12 11 10 10 13 15 15 16 17 18 19 21 23 24 24 26 29 30 30 29 28 27 26 25 23 22 20 19 17 15 14 12 10 8 7 6 6 5 6 6 7 8 9 10
3 2 3 3 3 4 2 3 2 4 3 3 4 5 7 7 8 7 7 4 3 3 1 0 4 3 2 1 0 1 2 1 3 6 7 7 9 10 10 11 12 11 10 9 9 11 13 14 14 15 18 19 20 21 22 23 24 27 30 30 30 30 29 27 26 24 23 21 20 18 16 14 12 10 8 7 5 4 4 4 5 6 8 9 10 10
3 2 4 2 0 1 0 0 1 2 1 4 6 4 5 7 7 5 3 3 5 5 4 2 5 3 2 1 1 1 1 1 1 4 5 5 5 7 9 10 10 9 9 9 9 11 12 13 13 15 18 20 20 20 20 22 25 28 30 31 31 31 29 28 26 25 23 22 20 18 16 14 12 9 8 6 5 3 3 4 5 6 8 9 10 11
5 4 6 4 2 3 3 4 4 4 5 6 4 5 7 8 5 2 2 2 5 7 9 6 7 3 3 2 2 1 1 1 2 3 5 5 5 7 8 9 10 9 9 10 10 11 13 14 15 17 18 20 20 20 21 23 26 29 31 32 33 31 30 29 27 26 24 22 21 19 16 14 12 10 8 7 4 3 2 3 4 6 8 9 10 11
5 3 7 9 8 9 7 6 6 5 4 3 2 6 10 12 11 6 4 5 6 6 11 10 7 2 2 1 2 3 1 2 4 4 4 5 5 6 7 9 10 10 11 12 13 12 13 14 16 18 20 21 21 21 22 24 27 29 31 33 34 33 31 30 29 27 25 24 22 19 17 14 13 11 9 7 5 3 1 2 4 7 8 9 9 10
3 2 9 12 12 9 4 2 3 7 7 9 9 11 13 15 15 9 5 7 5 5 8 12 8 4 4 5 5 5 4 4 4 4 4 6 6 6 7 8 8 9 10 12 12 12 12 13 17 20 21 22 22 22 23 25 27 30 32 34 35 34 33 32 30 28 27 25 22 20 18 15 14 12 10 8 6 3 1 2 5 7 8 8 9 10
3 6 12 14 15 8 1 2 2 9 14 16 15 14 14 14 15 14 13 9 7 5 9 9 9 9 9 10 9 8 7 5 4 5 6 6 6 6 7 8 9 9 10 11 11 12 13 13 16 19 21 22 23 23 23 25 29 33 35 36 36 35 34 33 32 30 28 26 23 21 19 17 16 13 11 9 7 4 2 2 5 6 8 9 9 10
3 8 10 10 15 10 1 1 4 7 11 12 15 18 16 15 17 18 18 11 10 10 11 6 12 14 10 12 10 8 8 8 6 6 5 5 6 7 8 9 10 12 12 13 14 14 14 13 14 18 21 21 22 23 23 25 30 33 34 34 35 35 35 34 33 31 29 27 25 22 20 19 17 15 13 11 8 5 3 3 4 6 8 9 10 10
3 6 6 6 11 13 6 3 3 4 5 5 12 17 17 18 19 18 18 14 13 17 12 6 10 13 6 10 9 5 5 5 4 4 4 6 8 9 10 10 11 13 14 15 16 15 14 14 14 17 18 19 21 24 25 27 30 33 34 35 36 36 35 35 34 32 30 28 27 25 22 20 18 16 15 12 10 6 4 4 4 6 9 10 11 11
4 6 5 5 7 10 7 5 2 3 3 2 8 13 11 13 14 14 15 13 12 15 10 4 7 9 4 7 5 3 3 3 4 5 6 7 8 9 10 10 11 12 13 14 14 13 12 12 13 15 17 19 22 24 28 32 33 35 37 37 38 38 37 37 35 33 32 30 29 27 24 22 20 18 17 14 11 8 6 5 5 7 9 10 11 12
6 4 4 4 8 7 5 6 5 1 2 5 13 13 10 10 10 11 11 9 10 13 9 6 9 7 4 6 4 4 5 7 7 8 6 6 7 9 10 10 11 11 12 13 12 12 11 11 14 17 19 22 23 25 31 36 36 37 38 39 40 40 38 37 36 34 33 32 31 28 25 24 22 20 18 15 12 10 7 6 6 8 10 11 12 12
7 5 4 6 8 4 2 6 7 4 1 7 14 12 14 14 12 10 8 9 11 12 9 9 11 5 4 6 6 6 7 9 8 7 6 6 7 9 9 9 9 10 10 10 10 11 12 13 16 19 21 23 25 29 35 39 39 41 43 43 43 40 38 38 37 35 34 33 32 29 27 26 24 22 20 16 13 11 9 8 8 9 10 12 12 13
5 7 5 6 5 2 1 4 6 5 7 6 5 4 12 17 15 12 11 13 14 12 7 4 4 3 6 8 9 9 8 6 4 5 5 5 6 8 8 8 8 8 8 8 9 10 12 14 17 19 21 25 29 33 37 40 42 45 45 43 42 40 39 38 37 36 36 35 33 31 29 27 25 23 21 17 15 12 11 10 10 10 11 12 12 13
7 7 5 3 2 1 2 5 6 7 7 2 3 4 3 9 13 15 16 16 17 15 10 5 4 5 6 6 6 5 3 2 2 2 3 4 5 7 7 8 8 7 7 7 9 10 12 15 17 18 22 27 32 34 34 35 39 41 39 38 39 39 39 38 37 37 36 35 33 31 30 28 27 25 22 19 16 14 13 11 11 11 12 12 13 13
7 7 3 2 3 3 3 7 6 3 2 2 2 1 2 3 6 10 12 14 15 14 12 11 9 5 4 4 3 3 3 3 1 2 4 4 4 6 7 8 8 8 8 9 10 11 14 18 20 21 25 28 30 30 30 32 34 35 34 35 37 38 38 37 37 37 36 35 33 32 30 29 28 26 23 20 18 16 14 13 12 12 12 13 13 14
3 4 2 3 4 3 3 6 2 5 5 4 4 5 5 4 6 8 8 8 9 10 10 11 10 5 5 4 4 4 3 2 2 5 6 7 7 8 8 5 6 7 8 8 9 11 15 19 21 22 24 24 25 27 29 30 31 32 32 33 35 36 36 36 37 37 36 35 34 33 31 30 29 27 24 22 19 17 15 14 13 13 13 13 14 14
1 1 1 3 3 3 3 4 2 4 7 5 3 5 3 1 4 6 3 3 2 6 10 11 11 9 6 5 5 5 4 1 5 5 5 7 8 8 5 3 4 5 6 7 8 9 12 15 17 18 19 19 21 24 27 28 29 30 31 32 34 35 35 36 37 38 37 36 35 33 32 31 30 28 25 23 20 18 16 15 14 14 14 14 15 15
2 0 0 2 2 3 3 4 4 5 5 1 1 1 1 0 4 6 1 3 3 6 9 11 11 8 7 7 6 6 5 4 7 4 3 6 7 7 6 5 4 5 6 8 8 9 10 12 12 14 15 16 18 20 22 25 27 29 31 33 34 34 35 37 39 39 38 38 36 34 32 32 30 28 26 23 20 18 17 16 15 14 14 15 16 16
2 1 2 4 4 5 6 5 4 4 2 1 1 1 1 1 3 5 2 3 3 5 6 8 9 6 7 8 7 6 6 6 4 1 3 5 5 5 6 6 5 6 8 9 8 8 9 10 11 12 13 15 16 17 20 23 26 29 32 33 33 35 37 39 40 40 40 38 36 34 33 32 30 29 27 24 21 19 18 17 16 15 15 16 16 17
2 2 2 5 6 7 9 6 4 4 2 2 3 3 3 1 2 5 4 0 3 5 5 6 7 6 7 8 7 6 5 2 2 2 3 5 4 4 5 5 6 8 9 10 10 9 8 9 10 10 12 14 15 16 20 23 26 29 31 31 34 36 38 39 39 39 39 38 36 35 34 32 31 29 27 24 21 20 19 17 17 16 16 16 17 17
3 2 2 4 5 4 5 5 4 4 2 5 4 1 1 3 3 3 2 2 3 5 5 4 5 6 7 8 7 5 2 3 4 3 4 5 4 4 5 5 6 7 8 8 9 9 10 10 11 11 12 14 15 17 20 24 27 29 30 32 35 36 36 37 38 39 38 37 36 35 34 33 32 29 27 25 23 21 19 18 17 17 16 17 17 18
5 4 3 5 4 2 2 5 5 4 2 9 9 3 2 3 3 3 2 1 1 3 5 4 5 6 8 7 6 4 4 3 2 3 4 4 3 3 5 7 7 8 10 10 11 12 13 14 14 15 15 16 17 19 21 25 28 29 31 33 33 33 34 36 37 37 37 37 36 36 35 34 32 30 28 26 24 22 20 19 18 17 17 17 18 18
4 4 3 4 4 3 4 6 3 0 4 10 9 4 4 4 3 5 6 3 1 3 5 5 5 7 8 6 6 6 5 4 4 3 4 4 3 3 4 6 8 10 13 14 13 14 16 17 17 17 18 18 19 20 23 27 28 29 31 33 32 32 34 35 35 35 35 36 36 36 36 35 33 30 29 27 24 22 21 19 18 18 17 18 18 19
3 3 2 2 3 2 2 2 0 1 3 6 3 2 3 4 3 4 6 4 2 4 5 4 5 7 7 5 4 5 5 6 5 4 5 5 5 5 5 6 9 12 13 14 14 14 16 18 18 18 18 20 22 23 25 28 29 30 32 33 33 33 35 34 33 34 35 36 37 37 37 35 33 31 29 27 25 23 21 20 19 18 18 19 19 19
0 1 1 0 1 1 1 2 2 1 1 4 2 2 2 3 2 2 3 3 3 4 5 4 4 6 7 5 4 4 5 6 6 5 5 5 5 5 5 6 10 12 12 13 14 15 17 18 17 18 18 20 23 24 26 29 31 32 33 33 33 34 34 33 33 34 35 36 38 38 37 35 34 32 30 27 25 23 22 20 20 19 19 20 20 20
1 2 2 1 2 2 2 2 2 1 2 3 2 1 1 1 1 1 2 2 2 4 4 2 2 4 6 6 6 5 5 5 6 6 6 5 5 5 5 7 12 16 16 16 16 16 17 17 18 20 21 22 24 26 28 30 32 34 34 32 31 32 32 32 33 34 35 37 37 38 37 36 35 33 31 28 26 24 23 22 21 21 21 21 21 21
2 4 3 1 1 1 1 1 0 2 3 3 2 2 2 2 2 2 1 1 2 2 3 2 3 4 5 6 7 6 4 4 5 5 5 5 6 5 5 9 14 17 18 17 16 16 16 18 20 22 23 25 27 27 29 31 33 35 35 34 32 31 31 32 33 34 36 37 38 38 38 37 36 34 31 29 27 25 24 23 23 23 23 22 21 20
3 4 3 2 2 2 1 1 2 1 1 2 4 5 4 3 4 3 2 2 2 2 3 2 2 3 4 5 5 5 4 4 5 6 5 5 5 5 7 12 15 16 17 16 16 18 19 21 23 24 25 28 28 27 29 32 33 35 36 36 34 32 31 32 33 34 35 36 37 39 38 37 36 34 32 30 28 26 25 24 23 24 23 21 19 19
3 4 3 3 3 2 2 5 6 3 1 4 6 7 6 5 4 3 3 3 3 4 4 3 2 2 2 3 4 5 5 5 6 6 5 4 5 7 12 16 17 16 17 17 17 18 20 23 24 25 26 28 27 27 29 32 33 34 35 36 36 34 33 32 33 33 34 35 37 38 38 37 36 34 32 30 27 26 25 24 23 24 23 20 18 18
4 5 4 4 2 2 3 6 6 3 1 3 5 5 4 5 5 4 4 5 5 4 5 5 4 4 4 6 7 8 6 5 6 7 5 5 10 14 17 19 18 18 19 20 19 19 22 23 24 24 26 29 28 27 29 31 31 32 33 34 36 36 34 33 33 33 34 36 37 38 38 38 36 34 31 29 27 26 25 24 23 23 22 19 17 17
Wind_Direction
226 195 207 225 209 196 198 204 213 75 77 123 159 238 250 260 267 208 128 70 34 271 259 253 265 271 253 192 159 148 159 180 180 184 190 183 180 177 169 159 147 130 111 85 64 56 46 56 73 88 94 96 103 109 112 114 117 117 118 118 116 116 115 112 109 106 102 99 96 94 90 88 87 86 86 86 86 86 86 86 85 83 82 81 80 79
215 218 226 227 177 178 200 194 160 129 146 187 222 241 249 249 260 243 129 100 95 251 260 256 262 268 262 177 135 159 184 196 201 198 201 187 181 181 168 160 150 135 133 131 95 76 61 64 82 94 98 101 103 107 111 113 116 116 117 119 118 118 118 116 113 110 107 103 99 96 93 91 89 87 85 85 85 85 86 85 84 83 82 81 80 79
206 230 232 168 103 112 140 170 189 207 208 211 224 244 256 246 262 262 144 119 184 230 259 289 274 268 262 149 135 178 192 196 214 220 225 193 189 184 164 155 151 151 144 133 114 97 85 68 76 87 94 101 103 105 109 111 114 114 115 118 117 117 117 116 114 113 110 108 105 102 98 95 92 88 87 86 85 86 85 85 84 83 82 81 81 80
203 241 232 130 131 145 131 168 186 199 219 217 213 232 244 214 229 251 159 112 187 230 298 329 293 272 260 176 149 170 183 174 178 210 235 216 213 181 153 160 161 163 157 145 137 119 107 86 76 80 92 103 107 108 110 113 114 115 116 117 117 116 116 114 113 112 111 109 108 105 102 99 95 92 90 88 86 85 85 85 85 84 83 83 82 81
210 341 126 145 159 171 154 162 180 197 220 215 215 229 241 221 223 243 90 92 210 205 237 284 286 274 253 227 194 151 165 180 169 184 198 200 208 179 165 193 187 177 169 155 144 126 108 95 82 82 97 106 110 112 113 114 116 117 118 118 118 117 116 115 114 113 112 111 108 106 103 100 97 93 90 87 83 82 82 82 84 84 84 84 83 82
230 101 129 150 164 179 171 178 191 202 222 224 218 223 238 241 232 228 133 218 257 232 188 233 266 264 200 234 224 149 169 186 172 193 202 193 190 196 195 189 187 186 181 151 129 119 103 100 95 88 92 96 103 112 115 116 118 120 120 120 120 119 119 119 119 119 118 116 113 111 108 104 99 92 87 85 83 82 82 82 83 84 84 83 82 81
222 127 138 151 163 174 187 212 194 189 224 245 219 213 227 238 233 211 183 201 256 266 90 224 255 257 250 247 196 150 196 194 185 208 207 200 196 197 197 187 183 179 169 146 124 124 119 116 113 103 91 87 103 116 119 121 123 125 125 125 124 123 123 123 123 123 122 121 120 117 112 107 102 97 94 94 93 90 89 87 85 83 81 81 80 79
147 152 159 159 161 172 200 223 180 179 217 237 83 188 203 207 210 205 196 207 247 324 114 202 233 267 271 262 129 144 214 214 206 209 206 206 201 194 193 186 181 176 163 154 149 146 140 132 121 115 103 101 116 122 124 126 128 130 131 131 129 127 127 127 126 126 124 122 119 115 110 106 104 103 102 100 98 96 94 90 87 83 80 78 77 77
138 174 187 174 176 197 207 216 161 178 212 287 73 120 156 176 191 185 195 217 245 308 243 202 167 250 257 224 137 146 231 244 221 202 199 201 197 191 189 183 176 170 165 164 164 156 148 143 132 125 120 122 128 128 127 129 130 132 133 133 132 130 129 129 129 127 124 121 116 112 110 108 107 106 105 103 100 98 95 91 88 84 80 77 74 73
65 204 206 181 193 204 166 39 152 187 201 132 123 100 91 85 92 135 201 202 160 233 247 209 174 224 264 207 184 177 232 246 222 190 192 192 189 188 183 178 173 168 172 177 169 160 155 150 144 138 133 132 133 130 129 129 128 129 130 131 130 128 128 128 128 126 122 118 115 113 112 111 111 110 108 106 102 98 95 91 88 84 81 77 74 71
76 38 296 207 208 164 104 58 28 65 130 142 139 108 95 89 90 104 171 164 210 235 241 213 186 211 261 212 201 207 215 225 173 166 181 180 182 185 180 175 173 173 178 178 172 166 162 156 154 151 141 138 137 133 132 130 129 128 128 130 129 127 128 128 126 124 120 118 116 115 116 115 115 114 112 108 104 100 97 92 88 84 80 76 73 69
134 179 195 179 110 111 111 86 48 42 122 162 155 140 131 119 143 172 146 174 241 235 201 178 182 213 239 218 204 205 142 147 161 172 180 178 179 181 177 174 173 179 178 173 175 172 168 168 167 162 150 144 142 138 136 134 132 130 130 131 129 128 129 127 126 124 121 120 119 119 119 119 118 117 113 109 105 101 97 93 88 84 80 75 72 68
198 202 161 107 194 182 148 113 79 74 207 214 167 164 184 187 181 214 197 196 242 233 103 67 154 218 241 241 252 251 149 162 172 161 180 177 176 177 174 172 173 178 178 176 179 177 176 176 172 168 161 154 151 146 142 138 135 133 132 132 131 129 129 129 127 126 124 123 122 122 121 120 118 115 111 108 104 101 97 94 91 87 82 77 72 66
203 205 154 168 204 204 184 169 162 174 190 196 181 180 194 187 196 220 203 225 258 222 80 94 176 223 252 247 259 266 90 90 79 42 209 177 173 173 168 169 173 175 179 182 183 182 181 180 175 171 166 162 160 154 148 143 139 136 135 135 133 132 133 132 130 128 126 125 124 124 122 119 116 112 108 105 103 100 96 93 89 84 78 72 67 62
215 247 178 177 164 171 191 202 162 143 166 193 190 196 209 200 213 224 209 233 263 113 107 134 188 207 204 163 297 330 49 53 74 51 17 166 164 159 157 165 173 178 183 185 185 187 184 181 177 174 171 167 164 159 153 147 143 140 139 138 137 136 136 135 132 130 128 126 124 123 120 118 115 111 107 104 100 97 93 89 83 78 74 68 64 58
222 266 160 149 107 167 183 203 86 121 158 189 78 224 235 234 214 237 304 4 47 39 181 187 227 233 199 124 93 70 87 113 108 93 135 162 154 149 161 174 180 183 185 184 185 188 186 183 180 178 176 172 167 163 158 153 148 145 143 142 141 140 139 138 135 133 130 127 125 122 119 116 113 109 105 102 98 93 88 82 75 70 65 60 54 47
207 278 99 82 6 172 178 150 117 150 169 150 173 200 212 318 50 138 237 70 55 271 227 176 224 248 222 219 131 118 156 154 149 154 163 166 160 164 178 183 185 187 183 183 187 188 185 184 185 184 182 177 173 169 164 159 155 151 149 147 145 143 142 141 138 135 132 130 127 124 121 117 112 108 104 100 94 89 82 76 70 64 58 53 46 40
197 235 124 138 175 132 348 54 95 0 90 141 187 191 139 4 313 212 244 173 179 253 253 181 218 213 188 212 130 138 181 186 188 176 165 171 174 181 189 188 188 185 180 183 187 188 187 185 187 188 186 183 178 173 169 166 161 156 154 152 150 148 146 144 142 139 137 135 131 127 123 118 113 108 103 98 93 87 82 76 69 63 56 50 42 35
205 225 157 112 179 107 30 205 145 46 307 157 203 169 124 219 207 175 225 234 202 240 261 196 214 220 204 196 165 183 198 195 190 177 174 185 186 190 193 190 188 181 180 188 190 190 188 187 188 189 188 186 181 177 174 171 166 161 158 156 153 152 150 148 146 144 141 139 134 130 126 121 115 110 104 99 95 89 83 76 68 60 52 45 38 32
180 231 209 90 5 115 144 209 191 178 181 1 197 174 220 262 214 175 196 224 217 236 260 221 206 211 209 191 176 191 199 187 180 178 188 193 192 194 192 187 187 187 188 191 190 189 186 185 190 191 189 185 183 182 179 175 171 165 162 159 157 155 154 152 151 148 145 142 139 135 130 126 120 115 109 104 98 91 82 73 64 56 48 40 34 29
138 233 219 113 54 176 183 209 205 183 171 173 183 182 187 193 268 255 228 179 229 240 243 254 257 208 182 187 185 191 194 180 175 179 190 195 196 196 192 188 187 188 189 189 187 184 180 183 189 189 187 186 186 186 184 180 176 170 166 163 161 160 159 157 156 153 151 148 145 141 136 132 127 122 118 111 102 91 81 72 64 56 48 38 31 25
174 199 190 152 181 202 208 288 297 228 193 189 191 187 186 176 157 208 223 185 198 250 224 251 274 231 143 160 203 186 170 169 175 178 183 193 196 194 193 193 191 188 188 187 181 174 176 183 186 184 184 187 188 190 189 185 181 176 172 168 167 166 165 164 162 160 158 155 151 148 144 141 136 132 128 122 110 98 89 79 67 54 42 31 23 18
136 140 169 164 200 217 284 6 337 298 301 288 248 206 192 185 175 198 221 180 159 222 149 18 280 271 116 113 116 58 21 46 175 188 189 194 193 190 192 191 192 192 186 177 171 173 179 185 183 180 183 188 192 193 191 188 186 182 178 175 174 173 171 171 169 167 164 161 159 157 154 151 148 145 141 136 130 119 102 79 57 42 30 21 14 9
101 171 183 174 223 192 354 239 228 323 302 251 246 212 202 211 195 203 221 152 181 196 150 185 249 238 130 134 96 70 22 10 252 214 208 203 187 188 193 188 187 186 175 169 171 175 180 184 184 183 184 189 193 193 190 190 190 187 184 182 180 178 177 176 175 174 171 169 168 166 165 162 160 160 162 162 159 136 98 61 41 26 15 10 4 0
169 182 173 171 194 192 198 207 214 212 200 223 229 180 202 212 176 140 102 137 230 200 163 201 246 200 140 151 141 146 190 224 226 213 213 214 196 189 191 189 187 180 172 172 173 177 184 188 189 189 189 190 191 190 190 192 192 191 189 188 186 183 182 182 182 180 178 177 176 175 174 173 173 178 184 183 174 143 94 43 22 10 4 0 355 352
174 186 178 187 201 200 204 212 208 188 173 213 197 169 201 201 178 170 169 197 229 178 164 206 236 158 117 187 196 175 156 233 217 193 206 220 210 195 189 187 185 181 181 180 179 184 189 191 192 192 191 190 189 189 190 192 194 194 194 193 191 189 188 188 187 186 185 185 184 183 181 181 186 195 197 194 188 177 138 12 4 358 355 351 347 345
149 223 205 214 222 213 214 248 148 126 155 204 198 181 196 200 190 188 202 213 199 147 194 220 218 205 198 193 204 186 173 222 216 178 201 220 211 197 188 187 187 187 189 186 184 186 187 191 195 194 192 189 188 191 192 193 195 196 197 197 195 194 193 193 191 191 191 191 191 190 188 190 199 205 204 202 201 202 238 343 352 350 346 342 340 338
137 220 215 223 240 240 29 332 198 161 186 208 204 195 198 196 189 194 212 209 146 155 236 213 185 217 207 178 196 193 178 212 221 195 210 212 198 188 178 182 189 194 196 192 192 193 192 195 196 194 192 189 188 190 192 195 198 199 199 199 198 198 198 196 195 195 196 196 197 197 195 200 208 211 209 210 211 218 250 329 343 339 336 334 332 331
157 227 216 212 239 247 96 322 249 199 202 210 205 204 200 191 189 199 214 204 154 200 240 162 169 216 203 171 193 193 179 201 206 197 197 179 175 175 172 180 190 196 199 199 201 202 201 201 197 193 192 188 186 189 191 196 200 201 201 201 201 202 201 200 198 198 199 201 202 202 203 208 213 214 215 216 217 225 253 305 326 327 327 327 325 323
176 223 207 188 233 241 216 201 224 205 216 218 210 210 205 198 196 201 213 208 196 224 237 151 187 228 192 159 186 188 178 188 169 158 164 166 172 171 174 187 196 200 201 202 205 205 204 202 196 191 188 185 187 190 193 197 201 201 202 203 204 205 204 202 201 201 203 205 207 208 209 213 215 217 219 219 220 230 249 277 308 318 318 318 316 316
208 209 170 154 226 235 209 184 171 197 214 228 230 223 203 193 196 204 216 211 210 233 234 161 221 244 169 142 163 151 145 146 159 178 178 176 172 167 178 195 201 204 206 206 208 206 201 196 191 187 187 190 193 193 197 201 202 203 204 205 206 206 205 204 203 204 206 209 211 212 213 215 217 220 221 219 222 232 244 265 293 305 308 309 309 308
202 203 117 153 219 227 193 186 191 150 36 277 254 231 178 165 185 203 215 206 202 222 225 222 245 243 162 145 141 137 159 177 189 187 177 179 173 171 188 200 205 209 208 208 208 201 195 194 193 193 194 197 197 196 200 203 203 205 207 207 208 208 206 205 204 206 210 212 214 214 215 217 219 221 222 220 223 233 242 259 279 292 297 300 300 301
182 185 151 179 210 223 175 184 178 130 98 256 251 220 180 185 196 196 207 211 206 209 211 225 239 228 143 149 156 165 186 198 198 183 175 184 181 186 200 202 205 210 208 208 205 198 198 198 198 198 197 197 198 200 206 206 205 209 212 211 211 209 207 206 206 209 212 215 216 216 216 219 221 221 222 221 225 233 240 253 268 281 288 291 294 295
169 185 191 191 203 215 139 140 145 172 212 235 268 216 188 194 194 191 209 216 211 210 213 234 240 181 150 163 174 186 196 197 189 178 178 180 179 191 205 205 206 208 204 204 202 201 203 200 199 200 199 202 206 210 213 212 210 213 215 212 210 209 208 208 208 210 214 215 216 217 218 220 221 221 221 222 226 233 239 249 261 272 279 284 288 290
168 185 194 178 169 151 121 136 162 210 224 212 2 336 221 195 192 200 218 222 216 215 219 228 219 177 168 175 177 183 176 104 78 179 195 199 186 181 192 203 205 198 194 199 202 203 203 200 200 202 204 209 213 214 213 212 211 214 214 211 209 208 209 209 208 210 214 215 216 217 218 219 220 220 221 223 227 233 238 246 256 265 273 279 284 287
168 179 170 140 150 123 146 182 195 247 264 127 92 18 63 124 176 201 227 235 225 215 212 219 220 185 146 151 117 77 77 68 18 240 207 205 196 183 192 200 193 187 192 197 198 198 200 201 202 205 209 213 215 215 214 214 214 213 212 211 209 208 208 208 207 210 212 213 215 217 218 219 219 219 220 223 227 232 238 245 252 261 269 276 281 285
172 179 158 176 185 138 171 207 245 334 292 219 161 173 177 161 164 182 219 239 223 201 196 209 219 191 136 121 105 93 95 86 293 254 204 190 195 197 203 196 173 183 192 191 195 202 207 210 210 212 215 216 216 217 217 216 214 210 208 208 207 207 207 205 207 210 212 214 216 217 217 218 219 219 220 223 227 232 237 243 249 258 267 274 279 282
156 195 179 198 194 128 168 218 247 286 261 236 157 162 177 162 146 153 191 258 213 184 180 191 211 199 147 117 125 133 130 190 261 251 190 178 191 194 199 193 167 177 179 176 185 195 203 209 212 215 217 215 216 218 217 215 211 205 204 204 204 204 204 204 208 211 212 215 217 217 218 219 219 220 221 225 228 232 237 242 248 257 266 273 278 281
117 73 143 205 191 158 193 225 222 231 251 301 112 138 55 34 125 113 97 261 198 186 181 185 205 195 146 138 155 150 153 217 246 244 153 168 188 185 188 196 180 177 189 187 184 184 189 194 197 201 205 207 211 213 211 209 205 201 201 202 202 201 202 205 210 213 215 218 218 217 219 219 219 220 222 226 229 231 235 242 248 257 266 271 277 281
160 174 193 212 210 198 210 228 238 245 273 31 187 168 90 270 135 126 213 253 175 177 183 183 198 187 146 149 158 161 186 217 236 222 133 149 169 175 186 193 183 192 209 209 197 187 182 180 181 186 195 203 208 207 204 203 200 199 201 201 200 201 205 211 216 217 218 219 218 218 219 219 219 220 223 226 229 231 235 242 248 256 264 269 274 279
173 179 194 217 223 216 216 227 246 250 231 159 180 170 146 166 160 173 206 253 131 173 186 184 189 168 143 153 168 186 206 196 78 77 115 131 149 174 189 194 194 203 211 211 205 197 185 184 191 199 208 215 215 209 203 199 197 198 200 200 201 206 214 219 221 220 219 218 218 218 219 218 219 221 224 226 228 230 235 241 249 256 261 267 273 277
165 159 190 218 222 219 221 231 250 257 206 128 118 79 171 174 175 181 177 65 135 178 188 192 185 161 158 176 191 193 149 87 90 114 145 161 165 161 167 176 186 195 197 197 201 199 196 201 209 214 221 223 218 211 204 198 197 199 200 201 206 215 221 223 221 219 219 218 218 219 219 219 219 220 222 225 227 230 236 241 248 255 259 265 271 273
163 160 191 207 195 175 217 221 233 259 179 133 122 109 227 202 165 132 114 77 127 165 175 191 189 176 177 188 199 184 116 112 160 150 150 181 178 143 161 175 182 188 187 188 194 199 201 207 213 217 222 223 219 214 205 199 199 201 201 206 215 222 223 222 221 221 220 219 219 219 219 218 219 220 222 225 227 230 236 242 247 252 257 263 268 271
178 174 198 204 179 164 200 214 220 258 168 157 143 145 188 180 146 140 145 150 201 173 177 191 195 194 193 188 185 170 141 157 198 176 166 193 194 166 172 180 187 192 193 195 201 204 206 209 216 221 223 222 221 216 209 206 205 203 205 214 223 223 221 221 222 221 220 219 218 218 218 217 218 220 223 225 227 229 234 240 245 250 256 261 265 268
196 170 183 203 181 166 181 206 2 35 164 166 133 53 136 140 143 155 145 141 179 185 183 189 188 193 198 186 157 153 166 193 203 194 193 199 196 195 193 188 194 199 200 203 207 209 212 216 220 223 223 224 223 219 215 214 210 208 214 223 225 222 222 222 220 218 218 218 217 217 217 216 217 220 222 224 226 229 234 239 243 247 253 259 262 266
65 105 139 155 158 153 67 86 78 20 189 171 123 44 93 118 132 158 147 154 177 176 178 188 181 178 184 176 153 162 192 198 194 200 210 208 206 206 196 199 210 211 208 208 210 213 217 219 222 225 227 228 226 222 221 220 216 217 226 229 225 223 223 221 217 217 216 216 216 215 215 214 216 218 220 223 226 230 234 237 241 245 251 256 259 263
214 162 175 192 179 183 166 131 108 40 246 208 181 116 90 103 132 171 177 171 165 169 180 184 140 145 160 170 180 194 200 187 186 203 210 208 215 211 194 204 215 213 210 212 215 217 217 217 220 225 229 231 231 229 227 225 224 226 231 230 226 225 223 219 218 217 217 216 215 214 213 214 216 217 219 221 224 228 232 235 240 244 248 252 256 259
170 158 165 192 190 153 128 130 90 299 262 234 220 218 203 166 162 189 203 90 92 138 160 133 107 132 156 179 195 202 200 186 192 206 208 207 216 215 206 214 217 215 215 218 219 218 217 218 223 227 230 233 237 236 232 231 232 232 230 228 228 227 224 221 220 220 219 217 215 214 214 215 216 217 219 222 225 228 232 236 240 245 249 252 255 258
124 154 165 156 140 106 75 182 201 246 237 200 214 231 224 185 168 177 165 128 112 123 132 145 179 169 172 183 185 188 203 207 203 208 214 213 211 210 218 225 225 224 224 224 225 224 223 224 227 229 232 237 240 239 236 237 238 236 232 229 229 228 225 224 223 221 220 217 215 215 215 215 216 218 220 223 226 229 234 239 243 247 251 253 255 259
155 175 161 128 148 176 189 181 173 160 160 191 207 219 213 179 161 161 162 176 195 181 162 173 200 191 212 220 187 179 204 219 210 206 213 217 213 215 224 228 229 233 235 234 233 232 230 230 232 232 236 241 242 239 239 241 241 240 237 232 230 228 226 225 222 219 218 217 216 216 215 215 216 218 219 222 225 229 234 239 243 247 251 253 255 258
189 193 168 150 175 207 182 172 169 161 162 198 206 213 197 162 156 177 195 197 202 193 177 181 191 195 222 230 209 197 207 216 205 201 212 232 231 229 229 228 226 229 235 236 234 233 233 234 234 235 240 245 243 240 241 243 243 243 240 236 232 230 228 226 222 219 219 219 219 218 217 215 216 216 217 221 225 229 233 237 242 247 253 256 258 260